Time,TemperatureF,DewpointF,PressureIn,WindDirection,WindDirectionDegrees,WindSpeedMPH,WindSpeedGustMPH,Humidity,HourlyPrecipIn,Conditions,Clouds,dailyrainin,SoftwareType,DateUTC
2013-04-09 00:00:00,65.5,53.0,30.02,SSW,212,0.0,0.0,64,0.00,,,0.00,LWC V2.00 B2112,2013-04-09 04:00:00,
2013-04-09 00:05:00,65.5,53.0,30.01,SW,222,0.0,1.0,64,0.00,,,0.00,LWC V2.00 B2112,2013-04-09 04:05:00,
2013-04-09 00:10:00,65.3,53.2,30.01,SSE,158,0.0,0.0,65,0.00,,,0.00,LWC V2.00 B2112,2013-04-09 04:10:00,
2013-04-09 00:15:00,65.2,53.1,30.01,East,91,0.0,0.0,65,0.00,,,0.00,LWC V2.00 B2112,2013-04-09 04:15:00,
2013-04-09 00:20:00,65.0,53.4,30.01,ENE,59,0.0,6.0,66,0.00,,,0.00,LWC V2.00 B2112,2013-04-09 04:20:00,
2013-04-09 00:25:00,64.8,53.2,30.01,SSW,198,0.0,0.0,66,0.00,,,0.00,LWC V2.00 B2112,2013-04-09 04:25:00,
2013-04-09 00:30:00,64.7,53.1,30.01,West,271,0.0,0.0,66,0.00,,,0.00,LWC V2.00 B2112,2013-04-09 04:30:00,
2013-04-09 00:40:00,64.5,53.3,30.02,SSW,213,0.0,0.0,67,0.00,,,0.00,LWC V2.00 B2112,2013-04-09 04:40:00,
2013-04-09 00:45:00,64.3,53.5,30.02,South,185,0.0,2.0,68,0.00,,,0.00,LWC V2.00 B2112,2013-04-09 04:45:00,
2013-04-09 00:50:00,64.3,53.5,30.02,SW,219,0.0,0.0,68,0.00,,,0.00,LWC V2.00 B2112,2013-04-09 04:50:00,
2013-04-09 00:55:00,64.2,53.8,30.02,WNW,295,0.0,0.0,69,0.00,,,0.00,LWC V2.00 B2112,2013-04-09 04:55:00,
2013-04-09 01:00:00,64.2,53.8,30.02,SSE,167,0.0,1.0,69,0.00,,,0.00,LWC V2.00 B2112,2013-04-09 05:00:00,
2013-04-09 01:05:00,64.2,53.8,30.02,South,186,0.0,0.0,69,0.00,,,0.00,LWC V2.00 B2112,2013-04-09 05:05:00,
2013-04-09 01:10:00,64.0,54.0,30.02,SSW,201,0.0,6.0,70,0.00,,,0.00,LWC V2.00 B2112,2013-04-09 05:10:00,
2013-04-09 01:15:00,63.7,53.7,30.02,South,189,0.0,0.0,70,0.00,,,0.00,LWC V2.00 B2112,2013-04-09 05:15:00,
2013-04-09 01:20:00,63.7,54.1,30.03,NNW,343,0.0,0.0,71,0.00,,,0.00,LWC V2.00 B2112,2013-04-09 05:20:00,
2013-04-09 01:25:00,63.7,54.1,30.03,SW,225,0.0,0.0,71,0.00,,,0.00,LWC V2.00 B2112,2013-04-09 05:25:00,
2013-04-09 01:30:00,63.7,54.1,30.03,SE,135,0.0,0.0,71,0.00,,,0.00,LWC V2.00 B2112,2013-04-09 05:30:00,
2013-04-09 01:35:00,63.5,54.3,30.03,SW,233,0.0,0.0,72,0.00,,,0.00,LWC V2.00 B2112,2013-04-09 05:35:00,
2013-04-09 01:40:00,63.4,54.2,30.03,SW,216,0.0,0.0,72,0.00,,,0.00,LWC V2.00 B2112,2013-04-09 05:40:00,
2013-04-09 01:45:00,63.4,54.6,30.03,SW,221,0.0,0.0,73,0.00,,,0.00,LWC V2.00 B2112,2013-04-09 05:45:00,
2013-04-09 01:50:00,63.2,54.4,30.02,WSW,257,0.0,2.0,73,0.00,,,0.00,LWC V2.00 B2112,2013-04-09 05:50:00,
2013-04-09 01:55:00,63.1,54.3,30.02,South,188,0.0,0.0,73,0.00,,,0.00,LWC V2.00 B2112,2013-04-09 05:55:00,
2013-04-09 02:00:00,63.1,54.7,30.02,West,274,0.0,0.0,74,0.00,,,0.00,LWC V2.00 B2112,2013-04-09 06:00:00,
2013-04-09 02:05:00,62.9,54.5,30.02,SW,228,0.0,0.0,74,0.00,,,0.00,LWC V2.00 B2112,2013-04-09 06:05:00,
2013-04-09 02:10:00,62.7,54.3,30.02,SW,225,0.0,0.0,74,0.00,,,0.00,LWC V2.00 B2112,2013-04-09 06:10:00,
2013-04-09 02:15:00,62.7,54.3,30.02,West,265,0.0,0.0,74,0.00,,,0.00,LWC V2.00 B2112,2013-04-09 06:15:00,
2013-04-09 02:20:00,62.6,54.6,30.02,West,264,0.0,0.0,75,0.00,,,0.00,LWC V2.00 B2112,2013-04-09 06:20:00,
2013-04-09 02:25:00,62.6,54.6,30.02,SW,232,0.0,0.0,75,0.00,,,0.00,LWC V2.00 B2112,2013-04-09 06:25:00,
2013-04-09 02:30:00,62.3,54.6,30.02,SSE,157,0.0,0.0,76,0.00,,,0.00,LWC V2.00 B2112,2013-04-09 06:30:00,
2013-04-09 02:35:00,62.3,54.6,30.02,South,186,0.0,0.0,76,0.00,,,0.00,LWC V2.00 B2112,2013-04-09 06:35:00,
2013-04-09 02:40:00,62.1,54.4,30.02,WSW,241,0.0,0.0,76,0.00,,,0.00,LWC V2.00 B2112,2013-04-09 06:40:00,
2013-04-09 02:45:00,62.0,54.7,30.02,SSW,212,0.0,0.0,77,0.00,,,0.00,LWC V2.00 B2112,2013-04-09 06:45:00,
2013-04-09 02:50:00,61.8,54.5,30.02,WSW,247,0.0,0.0,77,0.00,,,0.00,LWC V2.00 B2112,2013-04-09 06:50:00,
2013-04-09 03:00:00,61.6,54.7,30.02,SSW,210,0.0,0.0,78,0.00,,,0.00,LWC V2.00 B2112,2013-04-09 07:00:00,
2013-04-09 03:05:00,61.6,54.7,30.02,SW,236,0.0,0.0,78,0.00,,,0.00,LWC V2.00 B2112,2013-04-09 07:05:00,
2013-04-09 03:10:00,61.5,54.9,30.02,WSW,248,0.0,0.0,79,0.00,,,0.00,LWC V2.00 B2112,2013-04-09 07:10:00,
2013-04-09 03:15:00,61.5,54.9,30.02,WSW,246,0.0,0.0,79,0.00,,,0.00,LWC V2.00 B2112,2013-04-09 07:15:00,
2013-04-09 03:20:00,61.3,54.7,30.02,WSW,245,0.0,0.0,79,0.00,,,0.00,LWC V2.00 B2112,2013-04-09 07:20:00,
2013-04-09 03:25:00,61.2,55.0,30.02,West,267,0.0,0.0,80,0.00,,,0.00,LWC V2.00 B2112,2013-04-09 07:25:00,
2013-04-09 03:30:00,61.2,55.0,30.02,South,177,0.0,0.0,80,0.00,,,0.00,LWC V2.00 B2112,2013-04-09 07:30:00,
2013-04-09 03:35:00,61.2,55.0,30.02,SW,225,0.0,0.0,80,0.00,,,0.00,LWC V2.00 B2112,2013-04-09 07:35:00,
2013-04-09 03:40:00,61.0,54.8,30.02,SW,225,0.0,0.0,80,0.00,,,0.00,LWC V2.00 B2112,2013-04-09 07:40:00,
2013-04-09 03:45:00,60.9,54.7,30.02,SW,225,0.0,0.0,80,0.00,,,0.00,LWC V2.00 B2112,2013-04-09 07:45:00,
2013-04-09 03:50:00,60.9,55.0,30.02,SW,224,0.0,0.0,81,0.00,,,0.00,LWC V2.00 B2112,2013-04-09 07:50:00,
2013-04-09 03:55:00,60.7,54.8,30.02,SW,224,0.0,0.0,81,0.00,,,0.00,LWC V2.00 B2112,2013-04-09 07:55:00,
2013-04-09 04:00:00,60.5,54.6,30.02,SW,224,0.0,0.0,81,0.00,,,0.00,LWC V2.00 B2112,2013-04-09 08:00:00,
2013-04-09 04:05:00,60.5,55.0,30.02,SW,224,0.0,0.0,82,0.00,,,0.00,LWC V2.00 B2112,2013-04-09 08:05:00,
2013-04-09 04:15:00,60.5,55.3,30.02,SW,224,0.0,0.0,83,0.00,,,0.00,LWC V2.00 B2112,2013-04-09 08:15:00,
2013-04-09 04:20:00,60.4,55.2,30.03,SW,224,0.0,0.0,83,0.00,,,0.00,LWC V2.00 B2112,2013-04-09 08:20:00,
2013-04-09 04:25:00,60.4,55.2,30.03,SSW,205,0.0,0.0,83,0.00,,,0.00,LWC V2.00 B2112,2013-04-09 08:25:00,
2013-04-09 04:30:00,60.4,55.2,30.03,SW,222,0.0,0.0,83,0.00,,,0.00,LWC V2.00 B2112,2013-04-09 08:30:00,
2013-04-09 04:35:00,60.4,55.5,30.03,SW,227,0.0,0.0,84,0.00,,,0.00,LWC V2.00 B2112,2013-04-09 08:35:00,
2013-04-09 04:40:00,60.4,55.5,30.03,SSE,153,0.0,0.0,84,0.00,,,0.00,LWC V2.00 B2112,2013-04-09 08:40:00,
2013-04-09 04:45:00,60.4,55.5,30.03,SSE,153,0.0,0.0,84,0.00,,,0.00,LWC V2.00 B2112,2013-04-09 08:45:00,
2013-04-09 04:55:00,60.2,55.7,30.03,South,172,0.0,0.0,85,0.00,,,0.00,LWC V2.00 B2112,2013-04-09 08:55:00,
2013-04-09 05:00:00,60.2,55.7,30.03,South,170,0.0,0.0,85,0.00,,,0.00,LWC V2.00 B2112,2013-04-09 09:00:00,
2013-04-09 05:05:00,60.1,55.9,30.03,South,170,0.0,0.0,86,0.00,,,0.00,LWC V2.00 B2112,2013-04-09 09:05:00,
2013-04-09 05:10:00,60.1,55.9,30.03,SSE,167,0.0,0.0,86,0.00,,,0.00,LWC V2.00 B2112,2013-04-09 09:10:00,
2013-04-09 05:15:00,60.1,55.9,30.03,SW,219,0.0,0.0,86,0.00,,,0.00,LWC V2.00 B2112,2013-04-09 09:15:00,
2013-04-09 05:20:00,60.1,56.2,30.03,SSW,212,0.0,0.0,87,0.00,,,0.00,LWC V2.00 B2112,2013-04-09 09:20:00,
2013-04-09 05:30:00,60.1,56.2,30.03,WSW,255,0.0,0.0,87,0.00,,,0.00,LWC V2.00 B2112,2013-04-09 09:30:00,
2013-04-09 05:35:00,59.9,56.0,30.04,WSW,247,0.0,0.0,87,0.00,,,0.00,LWC V2.00 B2112,2013-04-09 09:35:00,
2013-04-09 05:40:00,59.9,56.0,30.04,WSW,247,0.0,0.0,87,0.00,,,0.00,LWC V2.00 B2112,2013-04-09 09:40:00,
2013-04-09 05:45:00,59.6,55.7,30.04,WSW,247,0.0,0.0,87,0.00,,,0.00,LWC V2.00 B2112,2013-04-09 09:45:00,
2013-04-09 05:50:00,59.5,55.9,30.04,WSW,248,0.0,0.0,88,0.00,,,0.00,LWC V2.00 B2112,2013-04-09 09:50:00,
2013-04-09 05:55:00,59.5,55.9,30.04,WSW,248,0.0,0.0,88,0.00,,,0.00,LWC V2.00 B2112,2013-04-09 09:55:00,
2013-04-09 06:00:00,59.5,56.6,30.04,WSW,246,0.0,0.0,90,0.00,,,0.00,LWC V2.00 B2112,2013-04-09 10:00:00,
2013-04-09 06:05:00,59.3,56.1,30.05,WSW,246,0.0,0.0,89,0.00,,,0.00,LWC V2.00 B2112,2013-04-09 10:05:00,
2013-04-09 06:10:00,59.2,56.3,30.05,WSW,246,0.0,0.0,90,0.00,,,0.00,LWC V2.00 B2112,2013-04-09 10:10:00,
2013-04-09 06:15:00,59.3,56.4,30.05,WSW,246,0.0,0.0,90,0.00,,,0.00,LWC V2.00 B2112,2013-04-09 10:15:00,
2013-04-09 06:20:00,59.2,56.3,30.05,WSW,246,0.0,0.0,90,0.00,,,0.00,LWC V2.00 B2112,2013-04-09 10:20:00,
2013-04-09 06:25:00,59.0,56.4,30.05,WSW,244,0.0,0.0,91,0.00,,,0.00,LWC V2.00 B2112,2013-04-09 10:25:00,
2013-04-09 06:30:00,59.0,56.4,30.05,WSW,251,0.0,0.0,91,0.00,,,0.00,LWC V2.00 B2112,2013-04-09 10:30:00,
2013-04-09 06:35:00,59.0,56.4,30.05,WNW,293,0.0,0.0,91,0.00,,,0.00,LWC V2.00 B2112,2013-04-09 10:35:00,
2013-04-09 06:40:00,58.9,56.3,30.05,WNW,293,0.0,0.0,91,0.00,,,0.00,LWC V2.00 B2112,2013-04-09 10:40:00,
2013-04-09 06:45:00,58.7,56.1,30.05,WNW,293,0.0,0.0,91,0.00,,,0.00,LWC V2.00 B2112,2013-04-09 10:45:00,
2013-04-09 06:50:00,58.7,56.4,30.05,WNW,284,0.0,0.0,92,0.00,,,0.00,LWC V2.00 B2112,2013-04-09 10:50:00,
2013-04-09 07:00:00,58.9,56.6,30.05,West,261,0.0,0.0,92,0.00,,,0.00,LWC V2.00 B2112,2013-04-09 11:00:00,
2013-04-09 07:05:00,58.9,56.6,30.05,WSW,254,0.0,0.0,92,0.00,,,0.00,LWC V2.00 B2112,2013-04-09 11:05:00,
2013-04-09 07:10:00,58.9,56.6,30.05,West,262,0.0,0.0,92,0.00,,,0.00,LWC V2.00 B2112,2013-04-09 11:10:00,
2013-04-09 07:15:00,58.9,56.6,30.05,WSW,255,0.0,0.0,92,0.00,,,0.00,LWC V2.00 B2112,2013-04-09 11:15:00,
2013-04-09 07:20:00,59.0,57.0,30.05,SSW,210,0.0,3.0,93,0.00,,,0.00,LWC V2.00 B2112,2013-04-09 11:20:00,
2013-04-09 07:25:00,59.3,57.0,30.05,WSW,238,0.0,0.0,92,0.00,,,0.00,LWC V2.00 B2112,2013-04-09 11:25:00,
2013-04-09 07:30:00,59.3,57.0,30.05,WSW,238,0.0,0.0,92,0.00,,,0.00,LWC V2.00 B2112,2013-04-09 11:30:00,
2013-04-09 07:35:00,59.5,57.2,30.06,SSE,158,0.0,0.0,92,0.00,,,0.00,LWC V2.00 B2112,2013-04-09 11:35:00,
2013-04-09 07:40:00,59.8,57.2,30.06,WSW,256,0.0,3.0,91,0.00,,,0.00,LWC V2.00 B2112,2013-04-09 11:40:00,
2013-04-09 07:45:00,59.9,57.3,30.06,WNW,293,0.0,0.0,91,0.00,,,0.00,LWC V2.00 B2112,2013-04-09 11:45:00,
2013-04-09 07:50:00,60.1,57.2,30.07,West,262,0.0,0.0,90,0.00,,,0.00,LWC V2.00 B2112,2013-04-09 11:50:00,
2013-04-09 07:55:00,60.4,57.1,30.07,West,274,0.0,0.0,89,0.00,,,0.00,LWC V2.00 B2112,2013-04-09 11:55:00,
2013-04-09 08:00:00,60.5,57.2,30.07,West,271,0.0,0.0,89,0.00,,,0.00,LWC V2.00 B2112,2013-04-09 12:00:00,
2013-04-09 08:05:00,60.9,57.3,30.07,South,184,0.0,0.0,88,0.00,,,0.00,LWC V2.00 B2112,2013-04-09 12:05:00,
2013-04-09 08:10:00,61.0,57.1,30.07,West,264,0.0,5.0,87,0.00,,,0.00,LWC V2.00 B2112,2013-04-09 12:10:00,
2013-04-09 08:15:00,61.3,57.1,30.07,South,177,0.0,0.0,86,0.00,,,0.00,LWC V2.00 B2112,2013-04-09 12:15:00,
2013-04-09 08:20:00,61.8,57.2,30.07,WSW,257,0.0,0.0,85,0.00,,,0.00,LWC V2.00 B2112,2013-04-09 12:20:00,
2013-04-09 08:25:00,62.1,57.2,30.07,WNW,291,0.0,0.0,84,0.00,,,0.00,LWC V2.00 B2112,2013-04-09 12:25:00,
2013-04-09 08:30:00,62.6,57.4,30.07,West,264,0.0,0.0,83,0.00,,,0.00,LWC V2.00 B2112,2013-04-09 12:30:00,
2013-04-09 08:35:00,63.1,57.5,30.07,WSW,237,3.0,4.0,82,0.00,,,0.00,LWC V2.00 B2112,2013-04-09 12:35:00,
2013-04-09 08:40:00,63.5,57.2,30.07,SSW,212,0.0,1.0,80,0.00,,,0.00,LWC V2.00 B2112,2013-04-09 12:40:00,
2013-04-09 08:50:00,64.3,57.3,30.07,SW,223,2.0,2.0,78,0.00,,,0.00,LWC V2.00 B2112,2013-04-09 12:50:00,
2013-04-09 08:55:00,64.8,57.4,30.07,SSW,207,0.0,0.0,77,0.00,,,0.00,LWC V2.00 B2112,2013-04-09 12:55:00,
2013-04-09 09:00:00,65.3,56.8,30.07,SW,216,3.0,6.0,74,0.00,,,0.00,LWC V2.00 B2112,2013-04-09 13:00:00,
2013-04-09 09:05:00,65.8,57.6,30.08,SSE,153,0.0,0.0,75,0.00,,,0.00,LWC V2.00 B2112,2013-04-09 13:05:00,
2013-04-09 09:10:00,66.1,57.2,30.08,West,278,0.0,0.0,73,0.00,,,0.00,LWC V2.00 B2112,2013-04-09 13:10:00,
2013-04-09 09:15:00,66.4,57.1,30.08,WSW,253,0.0,0.0,72,0.00,,,0.00,LWC V2.00 B2112,2013-04-09 13:15:00,
2013-04-09 09:25:00,66.9,57.2,30.07,NW,312,0.0,0.0,71,0.00,,,0.00,LWC V2.00 B2112,2013-04-09 13:25:00,
2013-04-09 09:30:00,67.3,57.2,30.07,West,280,0.0,0.0,70,0.00,,,0.00,LWC V2.00 B2112,2013-04-09 13:30:00,
2013-04-09 09:35:00,67.8,58.0,30.07,SW,226,0.0,0.0,71,0.00,,,0.00,LWC V2.00 B2112,2013-04-09 13:35:00,
2013-04-09 09:45:00,68.4,57.4,30.07,NW,316,0.0,0.0,68,0.00,,,0.00,LWC V2.00 B2112,2013-04-09 13:45:00,
2013-04-09 09:50:00,69.1,57.3,30.08,SSW,207,0.0,1.0,66,0.00,,,0.00,LWC V2.00 B2112,2013-04-09 13:50:00,
2013-04-09 10:00:00,69.4,57.1,30.08,West,278,0.0,0.0,65,0.00,,,0.00,LWC V2.00 B2112,2013-04-09 14:00:00,
2013-04-09 10:05:00,70.1,57.3,30.08,SSW,209,0.0,0.0,64,0.00,,,0.00,LWC V2.00 B2112,2013-04-09 14:05:00,
2013-04-09 10:15:00,70.6,58.2,30.08,WSW,239,0.0,0.0,65,0.00,,,0.00,LWC V2.00 B2112,2013-04-09 14:15:00,
2013-04-09 10:20:00,71.1,57.0,30.08,SW,236,0.0,0.0,61,0.00,,,0.00,LWC V2.00 B2112,2013-04-09 14:20:00,
2013-04-09 10:25:00,71.5,56.9,30.08,West,259,0.0,0.0,60,0.00,,,0.00,LWC V2.00 B2112,2013-04-09 14:25:00,
2013-04-09 10:35:00,72.7,57.1,30.08,WSW,254,0.0,0.0,58,0.00,,,0.00,LWC V2.00 B2112,2013-04-09 14:35:00,
2013-04-09 10:40:00,73.2,58.9,30.08,WSW,245,0.0,0.0,61,0.00,,,0.00,LWC V2.00 B2112,2013-04-09 14:40:00,
2013-04-09 10:45:00,73.2,57.5,30.08,West,267,0.0,0.0,58,0.00,,,0.00,LWC V2.00 B2112,2013-04-09 14:45:00,
2013-04-09 10:50:00,73.5,58.7,30.08,WSW,240,0.0,0.0,60,0.00,,,0.00,LWC V2.00 B2112,2013-04-09 14:50:00,
2013-04-09 10:55:00,73.5,56.3,30.08,West,278,0.0,0.0,55,0.00,,,0.00,LWC V2.00 B2112,2013-04-09 14:55:00,
2013-04-09 11:00:00,73.9,56.2,30.08,NNE,12,0.0,7.0,54,0.00,,,0.00,LWC V2.00 B2112,2013-04-09 15:00:00,
2013-04-09 11:05:00,74.0,57.8,30.08,West,263,0.0,0.0,57,0.00,,,0.00,LWC V2.00 B2112,2013-04-09 15:05:00,
2013-04-09 11:10:00,74.6,57.8,30.08,SW,236,0.0,0.0,56,0.00,,,0.00,LWC V2.00 B2112,2013-04-09 15:10:00,
2013-04-09 11:20:00,75.3,58.5,30.08,WSW,258,0.0,0.0,56,0.00,,,0.00,LWC V2.00 B2112,2013-04-09 15:20:00,
2013-04-09 11:25:00,75.6,58.8,30.08,SW,231,0.0,0.0,56,0.00,,,0.00,LWC V2.00 B2112,2013-04-09 15:25:00,
2013-04-09 11:30:00,76.5,58.1,30.08,South,172,0.0,0.0,53,0.00,,,0.00,LWC V2.00 B2112,2013-04-09 15:30:00,
2013-04-09 11:40:00,76.8,57.8,30.08,WSW,243,0.0,0.0,52,0.00,,,0.00,LWC V2.00 B2112,2013-04-09 15:40:00,
2013-04-09 11:45:00,77.0,57.5,30.08,SW,221,0.0,0.0,51,0.00,,,0.00,LWC V2.00 B2112,2013-04-09 15:45:00,
2013-04-09 11:50:00,77.0,58.5,30.08,WSW,238,0.0,0.0,53,0.00,,,0.00,LWC V2.00 B2112,2013-04-09 15:50:00,
2013-04-09 11:55:00,77.6,58.0,30.08,ESE,108,0.0,0.0,51,0.00,,,0.00,LWC V2.00 B2112,2013-04-09 15:55:00,
2013-04-09 12:00:00,77.9,57.2,30.08,SSW,213,0.0,0.0,49,0.00,,,0.00,LWC V2.00 B2112,2013-04-09 16:00:00,
2013-04-09 12:05:00,78.3,57.0,30.07,South,176,0.0,0.0,48,0.00,,,0.00,LWC V2.00 B2112,2013-04-09 16:05:00,
2013-04-09 12:10:00,78.6,57.2,30.07,West,278,0.0,0.0,48,0.00,,,0.00,LWC V2.00 B2112,2013-04-09 16:10:00,
2013-04-09 12:15:00,79.0,57.0,30.07,South,187,0.0,0.0,47,0.00,,,0.00,LWC V2.00 B2112,2013-04-09 16:15:00,
2013-04-09 12:20:00,79.4,55.6,30.06,WSW,238,0.0,0.0,44,0.00,,,0.00,LWC V2.00 B2112,2013-04-09 16:20:00,
2013-04-09 12:25:00,79.6,57.0,30.06,SW,230,0.0,6.0,46,0.00,,,0.00,LWC V2.00 B2112,2013-04-09 16:25:00,
2013-04-09 12:30:00,79.6,55.7,30.06,SW,220,0.0,0.0,44,0.00,,,0.00,LWC V2.00 B2112,2013-04-09 16:30:00,
2013-04-09 12:35:00,79.9,56.0,30.06,WNW,296,0.0,0.0,44,0.00,,,0.00,LWC V2.00 B2112,2013-04-09 16:35:00,
2013-04-09 12:40:00,80.3,53.8,30.06,West,276,0.0,0.0,40,0.00,,,0.00,LWC V2.00 B2112,2013-04-09 16:40:00,
2013-04-09 12:50:00,80.5,55.3,30.05,WSW,240,0.0,0.0,42,0.00,,,0.00,LWC V2.00 B2112,2013-04-09 16:50:00,
2013-04-09 12:55:00,80.9,54.3,30.05,NW,309,0.0,0.0,40,0.00,,,0.00,LWC V2.00 B2112,2013-04-09 16:55:00,
2013-04-09 13:00:00,81.1,57.7,30.05,WSW,247,0.0,0.0,45,0.00,,,0.00,LWC V2.00 B2112,2013-04-09 17:00:00,
2013-04-09 13:05:00,81.1,54.5,30.05,SW,221,0.0,0.0,40,0.00,,,0.00,LWC V2.00 B2112,2013-04-09 17:05:00,
2013-04-09 13:10:00,81.4,54.0,30.05,SW,214,0.0,0.0,39,0.00,,,0.00,LWC V2.00 B2112,2013-04-09 17:10:00,
2013-04-09 13:15:00,81.8,53.7,30.05,SW,224,0.0,1.0,38,0.00,,,0.00,LWC V2.00 B2112,2013-04-09 17:15:00,
2013-04-09 13:20:00,81.4,54.0,30.04,South,169,0.0,0.0,39,0.00,,,0.00,LWC V2.00 B2112,2013-04-09 17:20:00,
2013-04-09 13:25:00,81.4,55.4,30.04,SW,219,0.0,0.0,41,0.00,,,0.00,LWC V2.00 B2112,2013-04-09 17:25:00,
2013-04-09 13:30:00,81.6,54.9,30.04,SSE,162,0.0,0.0,40,0.00,,,0.00,LWC V2.00 B2112,2013-04-09 17:30:00,
2013-04-09 13:35:00,81.8,53.0,30.03,WSW,243,0.0,6.0,37,0.00,,,0.00,LWC V2.00 B2112,2013-04-09 17:35:00,
2013-04-09 13:40:00,82.0,53.9,30.03,WNW,300,0.0,0.0,38,0.00,,,0.00,LWC V2.00 B2112,2013-04-09 17:40:00,
2013-04-09 13:45:00,82.0,53.1,30.03,WSW,257,0.0,0.0,37,0.00,,,0.00,LWC V2.00 B2112,2013-04-09 17:45:00,
2013-04-09 13:50:00,82.0,53.9,30.03,WSW,240,0.0,5.0,38,0.00,,,0.00,LWC V2.00 B2112,2013-04-09 17:50:00,
2013-04-09 13:55:00,81.6,52.8,30.03,West,269,0.0,5.0,37,0.00,,,0.00,LWC V2.00 B2112,2013-04-09 17:55:00,
2013-04-09 14:00:00,81.8,52.2,30.03,SW,233,4.0,5.0,36,0.00,,,0.00,LWC V2.00 B2112,2013-04-09 18:00:00,
2013-04-09 14:05:00,81.4,51.9,30.03,SSW,200,0.0,0.0,36,0.00,,,0.00,LWC V2.00 B2112,2013-04-09 18:05:00,
2013-04-09 14:10:00,81.8,53.7,30.03,SSW,211,0.0,0.0,38,0.00,,,0.00,LWC V2.00 B2112,2013-04-09 18:10:00,
2013-04-09 14:15:00,82.6,52.9,30.03,ESE,106,0.0,0.0,36,0.00,,,0.00,LWC V2.00 B2112,2013-04-09 18:15:00,
2013-04-09 14:20:00,83.0,52.5,30.02,NW,307,0.0,0.0,35,0.00,,,0.00,LWC V2.00 B2112,2013-04-09 18:20:00,
2013-04-09 14:25:00,83.0,53.3,30.02,West,270,0.0,0.0,36,0.00,,,0.00,LWC V2.00 B2112,2013-04-09 18:25:00,
2013-04-09 14:30:00,82.8,52.3,30.02,West,269,0.0,0.0,35,0.00,,,0.00,LWC V2.00 B2112,2013-04-09 18:30:00,
2013-04-09 14:40:00,83.0,51.7,30.02,WSW,244,0.0,0.0,34,0.00,,,0.00,LWC V2.00 B2112,2013-04-09 18:40:00,
2013-04-09 14:45:00,82.8,49.9,30.02,SW,227,0.0,0.0,32,0.00,,,0.00,LWC V2.00 B2112,2013-04-09 18:45:00,
2013-04-09 14:55:00,83.2,53.4,30.02,WSW,252,0.0,4.0,36,0.00,,,0.00,LWC V2.00 B2112,2013-04-09 18:55:00,
2013-04-09 15:00:00,83.4,52.1,30.02,WNW,284,0.0,5.0,34,0.00,,,0.00,LWC V2.00 B2112,2013-04-09 19:00:00,
2013-04-09 15:05:00,83.8,52.4,30.01,SW,216,0.0,0.0,34,0.00,,,0.00,LWC V2.00 B2112,2013-04-09 19:05:00,
2013-04-09 15:10:00,84.0,53.4,30.01,SW,229,0.0,1.0,35,0.00,,,0.00,LWC V2.00 B2112,2013-04-09 19:10:00,
2013-04-09 15:20:00,84.0,50.9,30.01,West,266,0.0,9.0,32,0.00,,,0.00,LWC V2.00 B2112,2013-04-09 19:20:00,
2013-04-09 15:25:00,84.0,51.8,30.01,SW,236,0.0,2.0,33,0.00,,,0.00,LWC V2.00 B2112,2013-04-09 19:25:00,
2013-04-09 15:30:00,84.1,51.0,30.01,SW,229,0.0,0.0,32,0.00,,,0.00,LWC V2.00 B2112,2013-04-09 19:30:00,
2013-04-09 15:35:00,84.1,51.0,30.00,West,274,0.0,0.0,32,0.00,,,0.00,LWC V2.00 B2112,2013-04-09 19:35:00,
2013-04-09 15:40:00,83.6,50.6,30.00,WSW,250,0.0,0.0,32,0.00,,,0.00,LWC V2.00 B2112,2013-04-09 19:40:00,
2013-04-09 15:45:00,83.6,53.0,30.00,NW,310,0.0,0.0,35,0.00,,,0.00,LWC V2.00 B2112,2013-04-09 19:45:00,
2013-04-09 15:50:00,84.0,50.1,29.99,SW,236,1.0,8.0,31,0.00,,,0.00,LWC V2.00 B2112,2013-04-09 19:50:00,
2013-04-09 15:55:00,84.1,52.7,29.99,West,266,0.0,0.0,34,0.00,,,0.00,LWC V2.00 B2112,2013-04-09 19:55:00,
2013-04-09 16:00:00,84.1,50.2,29.99,SW,224,0.0,0.0,31,0.00,,,0.00,LWC V2.00 B2112,2013-04-09 20:00:00,
2013-04-09 16:05:00,84.3,52.0,29.99,West,271,0.0,8.0,33,0.00,,,0.00,LWC V2.00 B2112,2013-04-09 20:05:00,
2013-04-09 16:10:00,84.3,51.2,29.99,South,172,1.0,5.0,32,0.00,,,0.00,LWC V2.00 B2112,2013-04-09 20:10:00,
2013-04-09 16:20:00,84.1,50.2,29.98,SW,231,0.0,0.0,31,0.00,,,0.00,LWC V2.00 B2112,2013-04-09 20:20:00,
2013-04-09 16:25:00,84.1,52.7,29.98,WSW,243,0.0,1.0,34,0.00,,,0.00,LWC V2.00 B2112,2013-04-09 20:25:00,
2013-04-09 16:30:00,84.0,51.8,29.98,WNW,282,1.0,5.0,33,0.00,,,0.00,LWC V2.00 B2112,2013-04-09 20:30:00,
2013-04-09 16:35:00,83.8,52.4,29.98,West,259,0.0,2.0,34,0.00,,,0.00,LWC V2.00 B2112,2013-04-09 20:35:00,
2013-04-09 16:40:00,83.8,53.2,29.98,WSW,240,0.0,0.0,35,0.00,,,0.00,LWC V2.00 B2112,2013-04-09 20:40:00,
2013-04-09 16:45:00,83.8,51.6,29.98,West,280,0.0,4.0,33,0.00,,,0.00,LWC V2.00 B2112,2013-04-09 20:45:00,
2013-04-09 16:50:00,83.8,51.6,29.98,WSW,256,5.0,5.0,33,0.00,,,0.00,LWC V2.00 B2112,2013-04-09 20:50:00,
2013-04-09 16:55:00,83.8,52.4,29.98,SSW,200,0.0,8.0,34,0.00,,,0.00,LWC V2.00 B2112,2013-04-09 20:55:00,
2013-04-09 17:00:00,83.8,53.2,29.98,NW,304,0.0,0.0,35,0.00,,,0.00,LWC V2.00 B2112,2013-04-09 21:00:00,
2013-04-09 17:05:00,84.0,53.4,29.97,West,278,0.0,0.0,35,0.00,,,0.00,LWC V2.00 B2112,2013-04-09 21:05:00,
2013-04-09 17:10:00,83.6,51.4,29.97,ESE,113,0.0,2.0,33,0.00,,,0.00,LWC V2.00 B2112,2013-04-09 21:10:00,
2013-04-09 17:15:00,83.8,52.4,29.97,South,180,0.0,6.0,34,0.00,,,0.00,LWC V2.00 B2112,2013-04-09 21:15:00,
2013-04-09 17:30:00,84.1,52.7,29.97,SW,236,0.0,0.0,34,0.00,,,0.00,LWC V2.00 B2112,2013-04-09 21:30:00,
2013-04-09 17:40:00,84.0,53.4,29.97,SSW,213,0.0,0.0,35,0.00,,,0.00,LWC V2.00 B2112,2013-04-09 21:40:00,
2013-04-09 17:45:00,83.6,53.0,29.97,WSW,251,0.0,0.0,35,0.00,,,0.00,LWC V2.00 B2112,2013-04-09 21:45:00,
2013-04-09 17:50:00,83.6,52.2,29.98,SSW,195,0.0,0.0,34,0.00,,,0.00,LWC V2.00 B2112,2013-04-09 21:50:00,
2013-04-09 17:55:00,83.6,53.0,29.98,WSW,248,0.0,4.0,35,0.00,,,0.00,LWC V2.00 B2112,2013-04-09 21:55:00,
2013-04-09 18:00:00,83.6,53.0,29.98,West,276,0.0,0.0,35,0.00,,,0.00,LWC V2.00 B2112,2013-04-09 22:00:00,
2013-04-09 18:05:00,83.4,52.8,29.98,West,260,0.0,0.0,35,0.00,,,0.00,LWC V2.00 B2112,2013-04-09 22:05:00,
2013-04-09 18:15:00,83.0,53.3,29.98,WSW,237,0.0,1.0,36,0.00,,,0.00,LWC V2.00 B2112,2013-04-09 22:15:00,
2013-04-09 18:20:00,82.8,52.3,29.98,West,262,1.0,9.0,35,0.00,,,0.00,LWC V2.00 B2112,2013-04-09 22:20:00,
2013-04-09 18:25:00,82.4,54.2,29.98,SW,218,0.0,3.0,38,0.00,,,0.00,LWC V2.00 B2112,2013-04-09 22:25:00,
2013-04-09 18:30:00,82.2,52.6,29.98,WSW,242,0.0,4.0,36,0.00,,,0.00,LWC V2.00 B2112,2013-04-09 22:30:00,
2013-04-09 18:35:00,82.0,52.4,29.99,SW,235,0.0,1.0,36,0.00,,,0.00,LWC V2.00 B2112,2013-04-09 22:35:00,
2013-04-09 18:40:00,81.6,52.8,29.99,SSW,213,0.0,2.0,37,0.00,,,0.00,LWC V2.00 B2112,2013-04-09 22:40:00,
2013-04-09 18:45:00,81.2,53.1,29.99,SSE,160,0.0,1.0,38,0.00,,,0.00,LWC V2.00 B2112,2013-04-09 22:45:00,
2013-04-09 18:50:00,80.9,52.9,29.98,SSW,200,0.0,0.0,38,0.00,,,0.00,LWC V2.00 B2112,2013-04-09 22:50:00,
2013-04-09 18:55:00,80.5,53.2,29.98,WSW,238,0.0,0.0,39,0.00,,,0.00,LWC V2.00 B2112,2013-04-09 22:55:00,
2013-04-09 19:00:00,80.3,53.1,29.98,West,261,1.0,5.0,39,0.00,,,0.00,LWC V2.00 B2112,2013-04-09 23:00:00,
2013-04-09 19:05:00,80.1,53.6,29.98,West,260,0.0,0.0,40,0.00,,,0.00,LWC V2.00 B2112,2013-04-09 23:05:00,
2013-04-09 19:10:00,79.8,53.3,29.98,WSW,246,2.0,2.0,40,0.00,,,0.00,LWC V2.00 B2112,2013-04-09 23:10:00,
2013-04-09 19:15:00,79.6,53.1,29.98,SW,221,0.0,0.0,40,0.00,,,0.00,LWC V2.00 B2112,2013-04-09 23:15:00,
2013-04-09 19:20:00,79.4,53.6,29.97,WSW,248,0.0,0.0,41,0.00,,,0.00,LWC V2.00 B2112,2013-04-09 23:20:00,
2013-04-09 19:25:00,79.2,53.4,29.97,SW,226,0.0,0.0,41,0.00,,,0.00,LWC V2.00 B2112,2013-04-09 23:25:00,
2013-04-09 19:30:00,78.6,54.2,29.97,SSW,204,0.0,0.0,43,0.00,,,0.00,LWC V2.00 B2112,2013-04-09 23:30:00,
2013-04-09 19:35:00,78.3,53.9,29.97,SSE,166,0.0,0.0,43,0.00,,,0.00,LWC V2.00 B2112,2013-04-09 23:35:00,
2013-04-09 19:40:00,77.9,54.2,29.97,SSE,166,0.0,0.0,44,0.00,,,0.00,LWC V2.00 B2112,2013-04-09 23:40:00,
2013-04-09 19:45:00,77.7,54.0,29.97,SSW,210,0.0,0.0,44,0.00,,,0.00,LWC V2.00 B2112,2013-04-09 23:45:00,
2013-04-09 19:50:00,77.4,53.8,29.97,SSW,196,0.0,0.0,44,0.00,,,0.00,LWC V2.00 B2112,2013-04-09 23:50:00,
2013-04-09 19:55:00,77.2,54.2,29.97,SSW,195,0.0,0.0,45,0.00,,,0.00,LWC V2.00 B2112,2013-04-09 23:55:00,
2013-04-09 20:00:00,76.8,53.8,29.97,SW,233,0.0,0.0,45,0.00,,,0.00,LWC V2.00 B2112,2013-04-10 00:00:00,
2013-04-09 20:05:00,76.7,54.3,29.97,SSW,204,0.0,0.0,46,0.00,,,0.00,LWC V2.00 B2112,2013-04-10 00:05:00,
2013-04-09 20:10:00,76.5,54.2,29.97,SSE,165,0.0,0.0,46,0.00,,,0.00,LWC V2.00 B2112,2013-04-10 00:10:00,
2013-04-09 20:15:00,76.3,54.6,29.97,SSW,197,0.0,0.0,47,0.00,,,0.00,LWC V2.00 B2112,2013-04-10 00:15:00,
2013-04-09 20:20:00,76.1,54.4,29.98,SW,217,0.0,0.0,47,0.00,,,0.00,LWC V2.00 B2112,2013-04-10 00:20:00,
2013-04-09 20:25:00,75.8,54.7,29.98,SW,217,0.0,0.0,48,0.00,,,0.00,LWC V2.00 B2112,2013-04-10 00:25:00,
2013-04-09 20:30:00,75.4,54.3,29.98,SW,217,0.0,0.0,48,0.00,,,0.00,LWC V2.00 B2112,2013-04-10 00:30:00,
2013-04-09 20:35:00,75.3,54.8,29.99,SW,232,0.0,0.0,49,0.00,,,0.00,LWC V2.00 B2112,2013-04-10 00:35:00,
2013-04-09 20:40:00,74.9,54.4,29.99,SSE,158,0.0,0.0,49,0.00,,,0.00,LWC V2.00 B2112,2013-04-10 00:40:00,
2013-04-09 20:45:00,74.7,54.8,29.99,WSW,250,0.0,0.0,50,0.00,,,0.00,LWC V2.00 B2112,2013-04-10 00:45:00,
2013-04-09 20:50:00,74.6,54.7,29.99,WSW,257,0.0,0.0,50,0.00,,,0.00,LWC V2.00 B2112,2013-04-10 00:50:00,
2013-04-09 20:55:00,74.4,55.1,29.99,WSW,257,0.0,0.0,51,0.00,,,0.00,LWC V2.00 B2112,2013-04-10 00:55:00,
2013-04-09 21:00:00,74.2,54.9,29.99,WSW,239,0.0,0.0,51,0.00,,,0.00,LWC V2.00 B2112,2013-04-10 01:00:00,
2013-04-09 21:05:00,74.0,54.7,30.00,WSW,239,0.0,0.0,51,0.00,,,0.00,LWC V2.00 B2112,2013-04-10 01:05:00,
2013-04-09 21:10:00,73.9,55.1,30.00,WSW,239,0.0,0.0,52,0.00,,,0.00,LWC V2.00 B2112,2013-04-10 01:10:00,
2013-04-09 21:15:00,73.5,54.8,30.00,WSW,239,0.0,0.0,52,0.00,,,0.00,LWC V2.00 B2112,2013-04-10 01:15:00,
2013-04-09 21:20:00,73.3,55.1,30.00,SW,236,0.0,0.0,53,0.00,,,0.00,LWC V2.00 B2112,2013-04-10 01:20:00,
2013-04-09 21:25:00,73.3,55.1,30.00,South,181,0.0,0.0,53,0.00,,,0.00,LWC V2.00 B2112,2013-04-10 01:25:00,
2013-04-09 21:30:00,73.3,55.1,30.00,SW,225,0.0,0.0,53,0.00,,,0.00,LWC V2.00 B2112,2013-04-10 01:30:00,
2013-04-09 21:35:00,73.3,55.1,30.01,SW,226,0.0,0.0,53,0.00,,,0.00,LWC V2.00 B2112,2013-04-10 01:35:00,
2013-04-09 21:40:00,73.2,55.0,30.01,SW,226,0.0,0.0,53,0.00,,,0.00,LWC V2.00 B2112,2013-04-10 01:40:00,
2013-04-09 21:45:00,73.2,55.0,30.01,SSW,212,0.0,0.0,53,0.00,,,0.00,LWC V2.00 B2112,2013-04-10 01:45:00,
2013-04-09 21:50:00,73.0,55.4,30.01,SSW,208,0.0,0.0,54,0.00,,,0.00,LWC V2.00 B2112,2013-04-10 01:50:00,
2013-04-09 21:55:00,73.0,55.4,30.01,WNW,300,0.0,0.0,54,0.00,,,0.00,LWC V2.00 B2112,2013-04-10 01:55:00,
2013-04-09 22:00:00,73.0,55.4,30.01,SSW,210,0.0,0.0,54,0.00,,,0.00,LWC V2.00 B2112,2013-04-10 02:00:00,
2013-04-09 22:05:00,73.2,55.5,30.01,SW,226,0.0,0.0,54,0.00,,,0.00,LWC V2.00 B2112,2013-04-10 02:05:00,
2013-04-09 22:10:00,73.0,55.4,30.01,ESE,123,0.0,0.0,54,0.00,,,0.00,LWC V2.00 B2112,2013-04-10 02:10:00,
2013-04-09 22:15:00,73.0,55.4,30.01,SW,223,0.0,0.0,54,0.00,,,0.00,LWC V2.00 B2112,2013-04-10 02:15:00,
2013-04-09 22:20:00,72.8,55.7,30.01,SE,141,0.0,0.0,55,0.00,,,0.00,LWC V2.00 B2112,2013-04-10 02:20:00,
2013-04-09 22:25:00,72.7,55.6,30.01,SSW,205,0.0,0.0,55,0.00,,,0.00,LWC V2.00 B2112,2013-04-10 02:25:00,
2013-04-09 22:30:00,72.7,55.6,30.01,ESE,108,0.0,0.0,55,0.00,,,0.00,LWC V2.00 B2112,2013-04-10 02:30:00,
2013-04-09 22:35:00,72.5,55.9,30.01,WSW,247,0.0,0.0,56,0.00,,,0.00,LWC V2.00 B2112,2013-04-10 02:35:00,
2013-04-09 22:40:00,72.3,55.7,30.01,South,181,0.0,0.0,56,0.00,,,0.00,LWC V2.00 B2112,2013-04-10 02:40:00,
2013-04-09 22:45:00,72.1,55.5,30.01,SW,224,0.0,0.0,56,0.00,,,0.00,LWC V2.00 B2112,2013-04-10 02:45:00,
2013-04-09 22:50:00,72.0,55.9,30.01,SW,236,0.0,0.0,57,0.00,,,0.00,LWC V2.00 B2112,2013-04-10 02:50:00,
2013-04-09 22:55:00,71.6,55.5,30.01,SW,215,0.0,0.0,57,0.00,,,0.00,LWC V2.00 B2112,2013-04-10 02:55:00,
2013-04-09 23:00:00,71.5,55.5,30.01,SW,215,0.0,0.0,57,0.00,,,0.00,LWC V2.00 B2112,2013-04-10 03:00:00,
2013-04-09 23:05:00,71.1,55.6,30.00,SW,215,0.0,0.0,58,0.00,,,0.00,LWC V2.00 B2112,2013-04-10 03:05:00,
2013-04-09 23:10:00,71.1,55.6,30.00,West,263,0.0,0.0,58,0.00,,,0.00,LWC V2.00 B2112,2013-04-10 03:10:00,
2013-04-09 23:15:00,71.1,55.6,30.00,WSW,243,0.0,0.0,58,0.00,,,0.00,LWC V2.00 B2112,2013-04-10 03:15:00,
2013-04-09 23:20:00,71.1,55.6,30.00,SW,217,0.0,0.0,58,0.00,,,0.00,LWC V2.00 B2112,2013-04-10 03:20:00,
2013-04-09 23:25:00,70.9,55.4,30.00,SW,220,0.0,0.0,58,0.00,,,0.00,LWC V2.00 B2112,2013-04-10 03:25:00,
2013-04-09 23:30:00,70.8,55.8,30.00,SW,226,0.0,0.0,59,0.00,,,0.00,LWC V2.00 B2112,2013-04-10 03:30:00,
2013-04-09 23:35:00,70.4,55.4,30.00,SW,226,0.0,0.0,59,0.00,,,0.00,LWC V2.00 B2112,2013-04-10 03:35:00,
2013-04-09 23:40:00,70.3,55.3,30.00,South,187,0.0,0.0,59,0.00,,,0.00,LWC V2.00 B2112,2013-04-10 03:40:00,
2013-04-09 23:45:00,70.3,55.3,30.00,SSE,152,0.0,0.0,59,0.00,,,0.00,LWC V2.00 B2112,2013-04-10 03:45:00,
2013-04-09 23:50:00,70.3,55.3,29.99,West,278,0.0,0.0,59,0.00,,,0.00,LWC V2.00 B2112,2013-04-10 03:50:00,
2013-04-09 23:55:00,70.3,55.7,29.99,SW,226,0.0,0.0,60,0.00,,,0.00,LWC V2.00 B2112,2013-04-10 03:55:00,